Weather History for Jacksonville, NC

Change the Weather History Date:

Friday, May 3, 2013

  Actual Average Record
Temperature  
Mean Temperature 62 °F -  
Max Temperature 71 °F 75 °F 93 °F (2012)
Min Temperature 53 °F 51 °F 46 °F (2001)
Degree Days  
Heating Degree Days 3    
Growing Degree Days 12 (Base 50)    
Moisture  
Dew Point 50 °F    
Average Humidity 72    
Maximum Humidity 94    
Minimum Humidity 53    
Precipitation  
Precipitation 0.00 in - - ()
Sea Level Pressure  
Sea Level Pressure 30.19 in    
Wind  
Wind Speed 12 mph (NE)    
Max Wind Speed 21 mph    
Max Gust Speed 29 mph    
Visibility 10 miles    
Events      
Averages and records for this station are not official NWS values.
T = Trace of Precipitation, MM = Missing Value Source: NWS Daily Summary

Daily Weather History Graph

Daily Weather History Graph

Search for Another Location

Airport:

Trip Planner

Search our weather history database for the weather conditions in past years. The results will help you decide how hot, cold, wet, or windy it might be!

Date:

Astronomy

May. 03, 2013 Rise Set
Actual Time 6:17 AM EDT 7:57 PM EDT
Civil Twilight 5:50 AM EDT 8:24 PM EDT
Nautical Twilight 5:17 AM EDT 8:57 PM EDT
Astronomical Twilight 4:43 AM EDT 9:32 PM EDT
Moon 2:25 AM EDT (5/3) 2:04 PM EDT (5/3)
Length of Visible Light 14h 34m
Length of Day
13h 39m
Last Quarter, 37% of the Moon is Illuminated
May 3
Last Quarter
May 9
New
May 18
First Quarter
May 25
Full
May 31
Last Quarter

Hourly Weather History & Observations

Time (EDT) Temp. Dew Point Humidity Pressure Visibility Wind Dir Wind Speed Gust Speed Precip Events Conditions
12:15 AM 55.4 °F 51.8 °F 88% 30.23 in 10.0 mi NNE 9.2 mph - N/A   Clear
12:35 AM 55.4 °F 51.8 °F 88% 30.22 in 10.0 mi NE 9.2 mph - N/A   Clear
12:55 AM 55.4 °F 51.8 °F 88% 30.21 in 10.0 mi NNE 12.7 mph - N/A   Clear
1:15 AM 53.6 °F 51.8 °F 94% 30.20 in 10.0 mi NNE 11.5 mph - N/A   Clear
1:35 AM 53.6 °F 51.8 °F 94% 30.20 in 10.0 mi NNE 10.4 mph - N/A   Mostly Cloudy
1:55 AM 55.4 °F 51.8 °F 88% 30.19 in 10.0 mi NE 11.5 mph - N/A   Overcast
2:15 AM 55.4 °F 51.8 °F 88% 30.18 in 10.0 mi NE 13.8 mph - N/A   Overcast
2:35 AM 55.4 °F 51.8 °F 88% 30.18 in 10.0 mi NE 13.8 mph - N/A   Overcast
2:55 AM 55.4 °F 51.8 °F 88% 30.18 in 10.0 mi NE 11.5 mph - N/A   Overcast
3:15 AM 55.4 °F 51.8 °F 88% 30.17 in 10.0 mi NE 10.4 mph - N/A   Overcast
3:35 AM 55.4 °F 51.8 °F 88% 30.17 in 10.0 mi NE 9.2 mph - N/A   Overcast
3:55 AM 55.4 °F 51.8 °F 88% 30.16 in 10.0 mi NNE 11.5 mph - N/A   Overcast
4:15 AM 55.4 °F 51.8 °F 88% 30.16 in 10.0 mi NE 13.8 mph - N/A   Overcast
4:35 AM 55.4 °F 51.8 °F 88% 30.16 in 10.0 mi NE 13.8 mph - N/A   Overcast
4:55 AM 55.4 °F 51.8 °F 88% 30.17 in 10.0 mi NE 10.4 mph - N/A   Overcast
5:15 AM 55.4 °F 51.8 °F 88% 30.17 in 10.0 mi NE 9.2 mph - N/A   Unknown
5:35 AM 55.4 °F 51.8 °F 88% 30.17 in 10.0 mi NE 9.2 mph - N/A   Overcast
5:55 AM - - N/A% - - Calm Calm - N/A   Unknown
6:15 AM 55.4 °F 53.6 °F 94% 30.18 in 8.0 mi NNE 9.2 mph - N/A   Overcast
6:35 AM 55.4 °F 53.6 °F 94% 30.18 in 7.0 mi NE 12.7 mph - N/A   Overcast
6:55 AM 55.4 °F 51.8 °F 88% 30.19 in 9.0 mi NNE 10.4 mph - N/A   Overcast
7:15 AM 55.4 °F 51.8 °F 88% 30.19 in 7.0 mi NNE 9.2 mph - N/A   Overcast
7:35 AM 55.4 °F 53.6 °F 94% 30.19 in 2.5 mi NNE 9.2 mph - N/A   Mostly Cloudy
7:55 AM 55.4 °F 53.6 °F 94% 30.20 in 8.0 mi NNE 13.8 mph - N/A   Mostly Cloudy
8:15 AM 57.2 °F 53.6 °F 88% 30.20 in 8.0 mi NE 15.0 mph - N/A   Mostly Cloudy
8:35 AM 59.0 °F 53.6 °F 82% 30.20 in 10.0 mi NNE 13.8 mph - N/A   Scattered Clouds
8:55 AM 60.8 °F 53.6 °F 77% 30.19 in 10.0 mi NNE 15.0 mph 19.6 mph N/A   Partly Cloudy
9:15 AM 62.6 °F 53.6 °F 72% 30.20 in 10.0 mi NE 16.1 mph - N/A   Partly Cloudy
9:35 AM 62.6 °F 55.4 °F 77% 30.21 in 10.0 mi NE 17.3 mph 21.9 mph N/A   Scattered Clouds
9:55 AM 62.6 °F 55.4 °F 77% 30.21 in 10.0 mi ENE 17.3 mph 21.9 mph N/A   Scattered Clouds
10:15 AM 64.4 °F 53.6 °F 68% 30.21 in 10.0 mi NE 12.7 mph 21.9 mph N/A   Mostly Cloudy
10:35 AM 64.4 °F 53.6 °F 68% 30.21 in 10.0 mi NE 11.5 mph 21.9 mph N/A   Mostly Cloudy
10:55 AM 66.2 °F 53.6 °F 64% 30.21 in 10.0 mi NE 15.0 mph 19.6 mph N/A   Mostly Cloudy
11:15 AM 66.2 °F 53.6 °F 64% 30.21 in 10.0 mi NE 15.0 mph 19.6 mph N/A   Mostly Cloudy
11:35 AM 66.2 °F 55.4 °F 68% 30.21 in 10.0 mi ENE 11.5 mph - N/A   Overcast
11:55 AM 68.0 °F 55.4 °F 64% 30.21 in 10.0 mi ENE 16.1 mph - N/A   Mostly Cloudy
12:15 PM 68.0 °F 53.6 °F 60% 30.21 in 10.0 mi NE 18.4 mph - N/A   Overcast
12:35 PM 69.8 °F 53.6 °F 56% 30.20 in 10.0 mi NE 20.7 mph 25.3 mph N/A   Mostly Cloudy
12:55 PM 69.8 °F 53.6 °F 56% 30.19 in 10.0 mi ENE 16.1 mph 23.0 mph N/A   Partly Cloudy
1:15 PM 71.6 °F 53.6 °F 53% 30.18 in 10.0 mi ENE 16.1 mph 23.0 mph N/A   Scattered Clouds
1:35 PM 69.8 °F 51.8 °F 53% 30.18 in 10.0 mi ENE 18.4 mph 28.8 mph N/A   Clear
1:55 PM 69.8 °F 51.8 °F 53% 30.18 in 10.0 mi ENE 19.6 mph 25.3 mph N/A   Clear
2:15 PM 69.8 °F 51.8 °F 53% 30.18 in 10.0 mi ENE 16.1 mph 25.3 mph N/A   Clear
2:35 PM 69.8 °F 51.8 °F 53% 30.17 in 10.0 mi NE 20.7 mph 26.5 mph N/A   Clear
2:55 PM 69.8 °F 51.8 °F 53% 30.17 in 10.0 mi ENE 17.3 mph 23.0 mph N/A   Clear
3:15 PM 69.8 °F 51.8 °F 53% 30.16 in 10.0 mi East 17.3 mph 21.9 mph N/A   Partly Cloudy
3:35 PM 69.8 °F 51.8 °F 53% 30.16 in 10.0 mi East 15.0 mph 23.0 mph N/A   Mostly Cloudy
3:55 PM 68.0 °F 51.8 °F 56% 30.15 in 10.0 mi East 11.5 mph 20.7 mph N/A   Overcast
4:15 PM 66.2 °F 51.8 °F 60% 30.16 in 10.0 mi East 13.8 mph 20.7 mph N/A   Mostly Cloudy
4:35 PM 66.2 °F 51.8 °F 60% 30.15 in 10.0 mi East 12.7 mph 17.3 mph N/A   Scattered Clouds
4:55 PM 66.2 °F 51.8 °F 60% 30.15 in 10.0 mi ENE 15.0 mph - N/A   Scattered Clouds
5:15 PM 66.2 °F 51.8 °F 60% 30.16 in 10.0 mi East 12.7 mph - N/A   Mostly Cloudy
5:35 PM 64.4 °F 50.0 °F 59% 30.16 in 10.0 mi East 13.8 mph 18.4 mph N/A   Mostly Cloudy
5:55 PM 64.4 °F 50.0 °F 59% 30.16 in 10.0 mi East 15.0 mph - N/A   Mostly Cloudy
6:15 PM 62.6 °F 48.2 °F 59% 30.17 in 10.0 mi East 16.1 mph 23.0 mph N/A   Mostly Cloudy
6:35 PM 60.8 °F 46.4 °F 59% 30.17 in 10.0 mi ENE 12.7 mph - N/A   Scattered Clouds
6:55 PM 60.8 °F 46.4 °F 59% 30.18 in 10.0 mi ENE 10.4 mph - N/A   Mostly Cloudy
7:15 PM 60.8 °F 44.6 °F 55% 30.18 in 10.0 mi ENE 11.5 mph - N/A   Mostly Cloudy
7:35 PM 59.0 °F 44.6 °F 59% 30.19 in 10.0 mi ENE 16.1 mph - N/A   Mostly Cloudy
7:55 PM 57.2 °F 42.8 °F 59% 30.19 in 10.0 mi ENE 15.0 mph 20.7 mph N/A   Partly Cloudy
8:15 PM 57.2 °F 41.0 °F 55% 30.19 in 10.0 mi ENE 12.7 mph 18.4 mph N/A   Clear
8:35 PM 55.4 °F 42.8 °F 63% 30.19 in 10.0 mi NE 11.5 mph - N/A   Clear
8:55 PM 55.4 °F 42.8 °F 63% 30.19 in 10.0 mi NNE 11.5 mph - N/A   Clear
9:15 PM 55.4 °F 42.8 °F 63% 30.19 in 10.0 mi NNE 10.4 mph - N/A   Clear
9:35 PM 55.4 °F 42.8 °F 63% 30.20 in 10.0 mi NNE 10.4 mph - N/A   Clear
9:55 PM 55.4 °F 44.6 °F 67% 30.20 in 10.0 mi NNE 15.0 mph 19.6 mph N/A   Partly Cloudy
10:15 PM 55.4 °F 44.6 °F 67% 30.20 in 10.0 mi NNE 13.8 mph - N/A   Mostly Cloudy
10:35 PM 53.6 °F 44.6 °F 72% 30.19 in 10.0 mi NNE 15.0 mph 21.9 mph N/A   Scattered Clouds
10:55 PM 53.6 °F 44.6 °F 72% 30.19 in 10.0 mi NE 15.0 mph - N/A   Clear
11:15 PM 53.6 °F 44.6 °F 72% 30.18 in 10.0 mi NE 12.7 mph 19.6 mph N/A   Clear
11:35 PM 53.6 °F 44.6 °F 72% 30.18 in 10.0 mi NE 15.0 mph - N/A   Clear
11:55 PM 53.6 °F 44.6 °F 72% 30.17 in 10.0 mi NE 15.0 mph 20.7 mph N/A   Clear